Year,Month,Day,Hour,Minute,Value (Times are PST for temperature in C)
2018,12,16,09,21,9.90
2018,12,16,09,22,9.90
2018,12,16,09,23,9.90
2018,12,16,09,24,9.90
2018,12,16,09,25,9.90
2018,12,16,09,26,9.90
2018,12,16,09,27,9.90
2018,12,16,09,28,9.90
2018,12,16,09,29,9.90
2018,12,16,09,30,9.90
2018,12,16,09,31,9.80
2018,12,16,09,32,9.80
2018,12,16,09,33,9.80
2018,12,16,09,34,9.80
2018,12,16,09,35,9.80
2018,12,16,09,36,9.80
2018,12,16,09,37,9.80
2018,12,16,09,38,9.70
2018,12,16,09,39,9.70
2018,12,16,09,40,9.70
2018,12,16,09,41,9.70
2018,12,16,09,42,9.70
2018,12,16,09,43,9.70
2018,12,16,09,44,9.70
2018,12,16,09,45,9.70
2018,12,16,09,46,9.70
2018,12,16,09,47,9.80
2018,12,16,09,48,9.80
2018,12,16,09,49,9.80
2018,12,16,09,50,9.80
2018,12,16,09,51,9.80
2018,12,16,09,52,9.80
2018,12,16,09,53,9.80
2018,12,16,09,54,9.80
2018,12,16,09,55,9.80
2018,12,16,09,56,9.80
2018,12,16,09,57,9.80
2018,12,16,09,58,9.80
2018,12,16,09,59,9.80
2018,12,16,10,00,9.80
2018,12,16,10,01,9.80
2018,12,16,10,02,9.80
2018,12,16,10,03,9.80
2018,12,16,10,04,9.80
2018,12,16,10,05,9.80
2018,12,16,10,06,9.80
2018,12,16,10,07,9.80
2018,12,16,10,08,9.80
2018,12,16,10,09,9.80
2018,12,16,10,10,9.80
2018,12,16,10,11,9.80
2018,12,16,10,12,9.90
2018,12,16,10,13,9.90
2018,12,16,10,14,9.90
2018,12,16,10,15,9.90
2018,12,16,10,16,9.90
2018,12,16,10,17,9.90
2018,12,16,10,18,9.90
2018,12,16,10,19,9.90
2018,12,16,10,20,9.90
2018,12,16,10,21,9.90
2018,12,16,10,22,9.80
2018,12,16,10,23,9.80
2018,12,16,10,24,9.80
2018,12,16,10,25,9.80
2018,12,16,10,26,9.80
2018,12,16,10,27,9.80
2018,12,16,10,28,9.80
2018,12,16,10,29,9.80
2018,12,16,10,30,9.80
2018,12,16,10,31,9.80
2018,12,16,10,32,9.80
2018,12,16,10,33,9.80
2018,12,16,10,34,9.80
2018,12,16,10,35,9.80
2018,12,16,10,36,9.80
2018,12,16,10,37,9.80
2018,12,16,10,38,9.80
2018,12,16,10,39,9.80
2018,12,16,10,40,9.80
2018,12,16,10,41,9.80
2018,12,16,10,42,9.80
2018,12,16,10,43,9.80
2018,12,16,10,44,9.90
2018,12,16,10,45,9.90
2018,12,16,10,46,9.90
2018,12,16,10,47,9.90
2018,12,16,10,48,9.90
2018,12,16,10,49,9.90
2018,12,16,10,50,9.90
2018,12,16,10,51,10.00
2018,12,16,10,52,10.00
2018,12,16,10,53,10.10
2018,12,16,10,54,10.10
2018,12,16,10,55,10.10
2018,12,16,10,56,10.20
2018,12,16,10,57,10.20
2018,12,16,10,58,10.20
2018,12,16,10,59,10.30
2018,12,16,11,00,10.30
2018,12,16,11,01,10.30
2018,12,16,11,02,10.30
2018,12,16,11,03,10.40
2018,12,16,11,04,10.40
2018,12,16,11,05,10.40
2018,12,16,11,06,10.40
2018,12,16,11,07,10.50
2018,12,16,11,08,10.50
2018,12,16,11,09,10.50
2018,12,16,11,10,10.50
2018,12,16,11,11,10.50
2018,12,16,11,12,10.50
2018,12,16,11,13,10.60
2018,12,16,11,14,10.60
2018,12,16,11,15,10.60
2018,12,16,11,16,10.60
2018,12,16,11,17,10.60
2018,12,16,11,18,10.60
2018,12,16,11,19,10.60
2018,12,16,11,20,10.60
2018,12,16,11,21,10.60
2018,12,16,11,22,10.60
2018,12,16,11,23,10.60
2018,12,16,11,24,10.60
2018,12,16,11,25,10.60
2018,12,16,11,26,10.60
2018,12,16,11,27,10.60
2018,12,16,11,28,10.60
2018,12,16,11,29,10.60
2018,12,16,11,30,10.60
2018,12,16,11,31,10.60
2018,12,16,11,32,10.60
2018,12,16,11,33,10.60
2018,12,16,11,34,10.60
2018,12,16,11,35,10.70
2018,12,16,11,36,10.70
2018,12,16,11,37,10.70
2018,12,16,11,38,10.70
2018,12,16,11,39,10.70
2018,12,16,11,40,10.70
2018,12,16,11,41,10.70
2018,12,16,11,42,10.70
2018,12,16,11,43,10.70
2018,12,16,11,44,10.70
2018,12,16,11,45,10.70
2018,12,16,11,46,10.70
2018,12,16,11,47,10.70
2018,12,16,11,48,10.70
2018,12,16,11,49,10.70
2018,12,16,11,50,10.70
2018,12,16,11,51,10.70
2018,12,16,11,52,10.70
2018,12,16,11,53,10.80
2018,12,16,11,54,10.70
2018,12,16,11,55,10.70
2018,12,16,11,56,10.70
2018,12,16,11,57,10.70
2018,12,16,11,58,10.70
2018,12,16,11,59,10.70
2018,12,16,12,00,10.70
2018,12,16,12,01,10.80
2018,12,16,12,02,10.70
2018,12,16,12,03,10.70
2018,12,16,12,04,10.70
2018,12,16,12,05,10.70
2018,12,16,12,06,10.70
2018,12,16,12,07,10.70
2018,12,16,12,08,10.70
2018,12,16,12,09,10.70
2018,12,16,12,10,10.70
2018,12,16,12,11,10.70
2018,12,16,12,12,10.70
2018,12,16,12,13,10.70
2018,12,16,12,14,10.70
2018,12,16,12,15,10.70
2018,12,16,12,16,10.70
2018,12,16,12,17,10.70
2018,12,16,12,18,10.70
2018,12,16,12,19,10.70
2018,12,16,12,20,10.70
2018,12,16,12,21,10.70
2018,12,16,12,22,10.70
2018,12,16,12,23,10.70
2018,12,16,12,24,10.70
2018,12,16,12,25,10.70
2018,12,16,12,26,10.80
2018,12,16,12,27,10.80
2018,12,16,12,28,10.70
2018,12,16,12,29,10.80
2018,12,16,12,30,10.80
2018,12,16,12,31,10.70
2018,12,16,12,32,10.70
2018,12,16,12,33,10.70
2018,12,16,12,34,10.70
2018,12,16,12,35,10.70
2018,12,16,12,36,10.70
2018,12,16,12,37,10.60
2018,12,16,12,38,10.60
2018,12,16,12,39,10.50
2018,12,16,12,40,10.50
2018,12,16,12,41,10.40
2018,12,16,12,42,10.40
2018,12,16,12,43,10.40
2018,12,16,12,44,10.40
2018,12,16,12,45,10.40
2018,12,16,12,46,10.40
2018,12,16,12,47,10.40
2018,12,16,12,48,10.40
2018,12,16,12,49,10.40
2018,12,16,12,50,10.40
2018,12,16,12,51,10.30
2018,12,16,12,52,10.30
2018,12,16,12,53,10.30
2018,12,16,12,54,10.30
2018,12,16,12,55,10.30
2018,12,16,12,56,10.30
2018,12,16,12,57,10.30
2018,12,16,12,58,10.30
2018,12,16,12,59,10.30
2018,12,16,13,00,10.30
2018,12,16,13,01,10.30
2018,12,16,13,02,10.30
2018,12,16,13,03,10.30
2018,12,16,13,04,10.30
2018,12,16,13,05,10.30
2018,12,16,13,06,10.30
2018,12,16,13,07,10.30
2018,12,16,13,08,10.30
2018,12,16,13,09,10.30
2018,12,16,13,10,10.30
2018,12,16,13,11,10.30
2018,12,16,13,12,10.30
2018,12,16,13,13,10.30
2018,12,16,13,14,10.30
2018,12,16,13,15,10.30
2018,12,16,13,16,10.30
2018,12,16,13,17,10.30
2018,12,16,13,18,10.30
2018,12,16,13,19,10.40
2018,12,16,13,20,10.40
2018,12,16,13,21,10.40
2018,12,16,13,22,10.40
2018,12,16,13,23,10.40
2018,12,16,13,24,10.40
2018,12,16,13,25,10.40
2018,12,16,13,26,10.40
2018,12,16,13,27,10.40
2018,12,16,13,28,10.50
2018,12,16,13,29,10.50
2018,12,16,13,30,10.50
2018,12,16,13,31,10.50
2018,12,16,13,32,10.50
2018,12,16,13,33,10.50
2018,12,16,13,34,10.60
2018,12,16,13,35,10.60
2018,12,16,13,36,10.60
2018,12,16,13,37,10.60
2018,12,16,13,38,10.60
2018,12,16,13,39,10.60
2018,12,16,13,40,10.60
2018,12,16,13,41,10.60
2018,12,16,13,42,10.60
2018,12,16,13,43,10.60
2018,12,16,13,44,10.60
2018,12,16,13,45,10.60
2018,12,16,13,46,10.70
2018,12,16,13,47,10.70
2018,12,16,13,48,10.70
2018,12,16,13,49,10.70
2018,12,16,13,50,10.70
2018,12,16,13,51,10.70
2018,12,16,13,52,10.70
2018,12,16,13,53,10.70
2018,12,16,13,54,10.70
2018,12,16,13,55,10.70
2018,12,16,13,56,10.70
2018,12,16,13,57,10.70
2018,12,16,13,58,10.70
2018,12,16,13,59,10.70
2018,12,16,14,00,10.60
2018,12,16,14,01,10.60
2018,12,16,14,02,10.60
2018,12,16,14,03,10.60
2018,12,16,14,04,10.60
2018,12,16,14,05,10.50
2018,12,16,14,06,10.50
2018,12,16,14,07,10.50
2018,12,16,14,08,10.50
2018,12,16,14,09,10.50
2018,12,16,14,10,10.50
2018,12,16,14,11,10.50
2018,12,16,14,12,10.50
2018,12,16,14,13,10.40
2018,12,16,14,14,10.50
2018,12,16,14,15,10.50
2018,12,16,14,16,10.40
2018,12,16,14,17,10.40
2018,12,16,14,18,10.40
2018,12,16,14,19,10.40
2018,12,16,14,20,10.40
2018,12,16,14,21,10.40
2018,12,16,14,22,10.40
2018,12,16,14,23,10.40
2018,12,16,14,24,10.40
2018,12,16,14,25,10.40
2018,12,16,14,26,10.40
2018,12,16,14,27,10.40
2018,12,16,14,28,10.40
2018,12,16,14,29,10.40
2018,12,16,14,30,10.40
2018,12,16,14,31,10.30
2018,12,16,14,32,10.30
2018,12,16,14,33,10.30
2018,12,16,14,34,10.30
2018,12,16,14,35,10.30
2018,12,16,14,36,10.30
2018,12,16,14,37,10.30
2018,12,16,14,38,10.20
2018,12,16,14,39,10.20
2018,12,16,14,40,10.20
2018,12,16,14,41,10.20
2018,12,16,14,42,10.20
2018,12,16,14,43,10.20
2018,12,16,14,44,10.20
2018,12,16,14,45,10.20
2018,12,16,14,46,10.20
2018,12,16,14,47,10.20
2018,12,16,14,48,10.20
2018,12,16,14,49,10.20
2018,12,16,14,50,10.20
2018,12,16,14,51,10.20
2018,12,16,14,52,10.20
2018,12,16,14,53,10.20
2018,12,16,14,54,10.20
2018,12,16,14,55,10.20
2018,12,16,14,56,10.20
2018,12,16,14,57,10.20
2018,12,16,14,58,10.30
2018,12,16,14,59,10.30
2018,12,16,15,00,10.30
2018,12,16,15,01,10.30
2018,12,16,15,02,10.30
2018,12,16,15,03,10.30
2018,12,16,15,04,10.30
2018,12,16,15,05,10.30
2018,12,16,15,06,10.30
2018,12,16,15,07,10.30
2018,12,16,15,08,10.30
2018,12,16,15,09,10.30
2018,12,16,15,10,10.30
2018,12,16,15,11,10.30
2018,12,16,15,12,10.30
2018,12,16,15,13,10.20
2018,12,16,15,14,10.20
2018,12,16,15,15,10.20
2018,12,16,15,16,10.20
2018,12,16,15,17,10.20
2018,12,16,15,18,10.20
2018,12,16,15,19,10.20
2018,12,16,15,20,10.20
2018,12,16,15,21,10.20
2018,12,16,15,22,10.10
2018,12,16,15,23,10.10
2018,12,16,15,24,10.10
2018,12,16,15,25,10.10
2018,12,16,15,26,10.10
2018,12,16,15,27,10.10
2018,12,16,15,28,10.10
2018,12,16,15,29,10.10
2018,12,16,15,30,10.10
2018,12,16,15,31,10.10
2018,12,16,15,32,10.10
2018,12,16,15,33,10.10
2018,12,16,15,34,10.00
2018,12,16,15,35,10.00
2018,12,16,15,36,10.00
2018,12,16,15,37,10.00
2018,12,16,15,38,10.00
2018,12,16,15,39,10.00
2018,12,16,15,40,10.00
2018,12,16,15,41,10.00
2018,12,16,15,42,9.90
2018,12,16,15,43,9.90
2018,12,16,15,44,9.90
2018,12,16,15,45,9.90
2018,12,16,15,46,9.90
2018,12,16,15,47,9.90
2018,12,16,15,48,9.90
2018,12,16,15,49,9.90
2018,12,16,15,50,9.90
2018,12,16,15,51,9.90
2018,12,16,15,52,9.90
2018,12,16,15,53,9.90
2018,12,16,15,54,9.90
2018,12,16,15,55,9.90
2018,12,16,15,56,9.90
2018,12,16,15,57,9.90
2018,12,16,15,58,9.90
2018,12,16,15,59,9.90
2018,12,16,16,00,9.90
2018,12,16,16,01,9.90
2018,12,16,16,02,9.90
2018,12,16,16,03,9.90
2018,12,16,16,04,9.90
2018,12,16,16,05,9.90
2018,12,16,16,06,9.90
2018,12,16,16,07,9.90
2018,12,16,16,08,9.90
2018,12,16,16,09,9.90
2018,12,16,16,10,9.90
2018,12,16,16,11,9.90
2018,12,16,16,12,9.90
2018,12,16,16,13,9.90
2018,12,16,16,14,9.90
2018,12,16,16,15,9.90
2018,12,16,16,16,9.90
2018,12,16,16,17,9.90
2018,12,16,16,18,9.90
2018,12,16,16,19,9.90
2018,12,16,16,20,9.90
2018,12,16,16,21,9.90
2018,12,16,16,22,9.90
2018,12,16,16,23,9.90
2018,12,16,16,24,9.90
2018,12,16,16,25,9.90
2018,12,16,16,26,9.90
2018,12,16,16,27,9.90
2018,12,16,16,28,9.90
2018,12,16,16,29,9.90
2018,12,16,16,30,9.90
2018,12,16,16,31,9.90
2018,12,16,16,32,9.90
2018,12,16,16,33,9.90
2018,12,16,16,34,9.90
2018,12,16,16,35,9.90
2018,12,16,16,36,9.90
2018,12,16,16,37,9.90
2018,12,16,16,38,9.90
2018,12,16,16,39,9.90
2018,12,16,16,40,9.90
2018,12,16,16,41,9.90
2018,12,16,16,42,9.90
2018,12,16,16,43,9.90
2018,12,16,16,44,9.90
2018,12,16,16,45,9.90
2018,12,16,16,46,9.80
2018,12,16,16,47,9.80
2018,12,16,16,48,9.80
2018,12,16,16,49,9.80
2018,12,16,16,50,9.80
2018,12,16,16,51,9.80
2018,12,16,16,52,9.80
2018,12,16,16,53,9.80
2018,12,16,16,54,9.80
2018,12,16,16,55,9.80
2018,12,16,16,56,9.80
2018,12,16,16,57,9.80
2018,12,16,16,58,9.80
2018,12,16,16,59,9.80
2018,12,16,17,00,9.80
2018,12,16,17,01,9.80
2018,12,16,17,02,9.80
2018,12,16,17,03,9.70
2018,12,16,17,04,9.70
2018,12,16,17,05,9.70
2018,12,16,17,06,9.70
2018,12,16,17,07,9.70
2018,12,16,17,08,9.70
2018,12,16,17,09,9.70
2018,12,16,17,10,9.70
2018,12,16,17,11,9.70
2018,12,16,17,12,9.70
2018,12,16,17,13,9.70
2018,12,16,17,14,9.70
2018,12,16,17,15,9.70
2018,12,16,17,16,9.70
2018,12,16,17,17,9.70
2018,12,16,17,18,9.70
2018,12,16,17,19,9.70
2018,12,16,17,20,9.70
2018,12,16,17,21,9.70
2018,12,16,17,22,9.70
2018,12,16,17,23,9.70
2018,12,16,17,24,9.70
2018,12,16,17,25,9.70
2018,12,16,17,26,9.70
2018,12,16,17,27,9.70
2018,12,16,17,28,9.70
2018,12,16,17,29,9.70
2018,12,16,17,30,9.70
2018,12,16,17,31,9.70
2018,12,16,17,32,9.70
2018,12,16,17,33,9.70
2018,12,16,17,34,9.70
2018,12,16,17,35,9.70
2018,12,16,17,36,9.70
2018,12,16,17,37,9.70
2018,12,16,17,38,9.70
2018,12,16,17,39,9.70
2018,12,16,17,40,9.70
2018,12,16,17,41,9.60
2018,12,16,17,42,9.60
2018,12,16,17,43,9.60
2018,12,16,17,44,9.60
2018,12,16,17,45,9.60
2018,12,16,17,46,9.60
2018,12,16,17,47,9.60
2018,12,16,17,48,9.60
2018,12,16,17,49,9.60
2018,12,16,17,50,9.60
2018,12,16,17,51,9.60
2018,12,16,17,52,9.60
2018,12,16,17,53,9.60
2018,12,16,17,54,9.60
2018,12,16,17,55,9.60
2018,12,16,17,56,9.60
2018,12,16,17,57,9.60
2018,12,16,17,58,9.50
2018,12,16,17,59,9.50
2018,12,16,18,00,9.50
2018,12,16,18,01,9.50
2018,12,16,18,02,9.50
2018,12,16,18,03,9.50
2018,12,16,18,04,9.50
2018,12,16,18,05,9.50
2018,12,16,18,06,9.50
2018,12,16,18,07,9.50
2018,12,16,18,08,9.50
2018,12,16,18,09,9.50
2018,12,16,18,10,9.50
2018,12,16,18,11,9.50
2018,12,16,18,12,9.50
2018,12,16,18,13,9.50
2018,12,16,18,14,9.50
2018,12,16,18,15,9.50
2018,12,16,18,16,9.50
2018,12,16,18,17,9.50
2018,12,16,18,18,9.50
2018,12,16,18,19,9.60
2018,12,16,18,20,9.60
2018,12,16,18,21,9.60
2018,12,16,18,22,9.60
2018,12,16,18,23,9.60
2018,12,16,18,24,9.60
2018,12,16,18,25,9.60
2018,12,16,18,26,9.60
2018,12,16,18,27,9.60
2018,12,16,18,28,9.60
2018,12,16,18,29,9.60
2018,12,16,18,30,9.60
2018,12,16,18,31,9.70
2018,12,16,18,32,9.70
2018,12,16,18,33,9.70
2018,12,16,18,34,9.70
2018,12,16,18,35,9.70
2018,12,16,18,36,9.70
2018,12,16,18,37,9.70
2018,12,16,18,38,9.70
2018,12,16,18,39,9.80
2018,12,16,18,40,9.80
2018,12,16,18,41,9.80
2018,12,16,18,42,9.80
2018,12,16,18,43,9.70
2018,12,16,18,44,9.70
2018,12,16,18,45,9.70
2018,12,16,18,46,9.70
2018,12,16,18,47,9.70
2018,12,16,18,48,9.70
2018,12,16,18,49,9.70
2018,12,16,18,50,9.70
2018,12,16,18,51,9.70
2018,12,16,18,52,9.70
2018,12,16,18,53,9.70
2018,12,16,18,54,9.70
2018,12,16,18,55,9.70
2018,12,16,18,56,9.70
2018,12,16,18,57,9.70
2018,12,16,18,58,9.70
2018,12,16,18,59,9.70
2018,12,16,19,00,9.70
2018,12,16,19,01,9.80
2018,12,16,19,02,9.80
2018,12,16,19,03,9.80
2018,12,16,19,04,9.80
2018,12,16,19,05,9.90
2018,12,16,19,06,9.90
2018,12,16,19,07,9.90
2018,12,16,19,08,9.90
2018,12,16,19,09,10.00
2018,12,16,19,10,10.00
2018,12,16,19,11,10.00
2018,12,16,19,12,10.00
2018,12,16,19,13,9.90
2018,12,16,19,14,9.90
2018,12,16,19,15,9.90
2018,12,16,19,16,9.90
2018,12,16,19,17,9.90
2018,12,16,19,18,9.90
2018,12,16,19,19,9.90
2018,12,16,19,20,9.90
2018,12,16,19,21,9.90
2018,12,16,19,22,9.90
2018,12,16,19,23,9.90
2018,12,16,19,24,9.80
2018,12,16,19,25,9.80
2018,12,16,19,26,9.80
2018,12,16,19,27,9.80
2018,12,16,19,28,9.80
2018,12,16,19,29,9.70
2018,12,16,19,30,9.70
2018,12,16,19,31,9.70
2018,12,16,19,32,9.70
2018,12,16,19,33,9.70
2018,12,16,19,34,9.70
2018,12,16,19,35,9.60
2018,12,16,19,36,9.60
2018,12,16,19,37,9.60
2018,12,16,19,38,9.70
2018,12,16,19,39,9.70
2018,12,16,19,40,9.70
2018,12,16,19,41,9.70
2018,12,16,19,42,9.70
2018,12,16,19,43,9.70
2018,12,16,19,44,9.70
2018,12,16,19,45,9.80
2018,12,16,19,46,9.80
2018,12,16,19,47,9.80
2018,12,16,19,48,9.80
2018,12,16,19,49,9.80
2018,12,16,19,50,9.80
2018,12,16,19,51,9.80
2018,12,16,19,52,9.80
2018,12,16,19,53,9.80
2018,12,16,19,54,9.80
2018,12,16,19,55,9.80
2018,12,16,19,56,9.80
2018,12,16,19,57,9.80
2018,12,16,19,58,9.80
2018,12,16,19,59,9.70
2018,12,16,20,00,9.70
2018,12,16,20,01,9.70
2018,12,16,20,02,9.70
2018,12,16,20,03,9.70
2018,12,16,20,04,9.70
2018,12,16,20,05,9.70
2018,12,16,20,06,9.70
2018,12,16,20,07,9.70
2018,12,16,20,08,9.60
2018,12,16,20,09,9.60
2018,12,16,20,10,9.60
2018,12,16,20,11,9.60
2018,12,16,20,12,9.60
2018,12,16,20,13,9.50
2018,12,16,20,14,9.50
2018,12,16,20,15,9.50
2018,12,16,20,16,9.50
2018,12,16,20,17,9.50
2018,12,16,20,18,9.50
2018,12,16,20,19,9.50
2018,12,16,20,20,9.50
2018,12,16,20,21,9.50
2018,12,16,20,22,9.50
2018,12,16,20,23,9.50
2018,12,16,20,24,9.50
2018,12,16,20,25,9.50
2018,12,16,20,26,9.60
2018,12,16,20,27,9.60
2018,12,16,20,28,9.60
2018,12,16,20,29,9.60
2018,12,16,20,30,9.60
2018,12,16,20,31,9.60
2018,12,16,20,32,9.60
2018,12,16,20,33,9.60
2018,12,16,20,34,9.50
2018,12,16,20,35,9.50
2018,12,16,20,36,9.50
2018,12,16,20,37,9.50
2018,12,16,20,38,9.50
2018,12,16,20,39,9.40
2018,12,16,20,40,9.40
2018,12,16,20,41,9.40
2018,12,16,20,42,9.40
2018,12,16,20,43,9.40
2018,12,16,20,44,9.40
2018,12,16,20,45,9.40
2018,12,16,20,46,9.30
2018,12,16,20,47,9.30
2018,12,16,20,48,9.30
2018,12,16,20,49,9.30
2018,12,16,20,50,9.30
2018,12,16,20,51,9.30
2018,12,16,20,52,9.30
2018,12,16,20,53,9.30
2018,12,16,20,54,9.30
2018,12,16,20,55,9.20
2018,12,16,20,56,9.20
2018,12,16,20,57,9.20
2018,12,16,20,58,9.20
2018,12,16,20,59,9.20
2018,12,16,21,00,9.20
2018,12,16,21,01,9.20
2018,12,16,21,02,9.20
2018,12,16,21,03,9.10
2018,12,16,21,04,9.10
2018,12,16,21,05,9.10
2018,12,16,21,06,9.10
2018,12,16,21,07,9.10
2018,12,16,21,08,9.10
2018,12,16,21,09,9.10
2018,12,16,21,10,9.10
2018,12,16,21,11,9.10
2018,12,16,21,12,9.10
2018,12,16,21,13,9.10
2018,12,16,21,14,9.10
2018,12,16,21,15,9.10
2018,12,16,21,16,9.10
2018,12,16,21,17,9.10
2018,12,16,21,18,9.10
2018,12,16,21,19,9.10
2018,12,16,21,20,9.10
2018,12,16,21,21,9.10
2018,12,16,21,22,9.10
2018,12,16,21,23,9.10
2018,12,16,21,24,9.10
2018,12,16,21,25,9.10
2018,12,16,21,26,9.10
2018,12,16,21,27,9.10
2018,12,16,21,28,9.10
2018,12,16,21,29,9.10
2018,12,16,21,30,9.10
2018,12,16,21,31,9.10
2018,12,16,21,32,9.10
2018,12,16,21,33,9.10
2018,12,16,21,34,9.10
2018,12,16,21,35,9.10
2018,12,16,21,36,9.10
2018,12,16,21,37,9.10
2018,12,16,21,38,9.10
2018,12,16,21,39,9.00
2018,12,16,21,40,9.10
2018,12,16,21,41,9.00
2018,12,16,21,42,9.00
2018,12,16,21,43,9.00
2018,12,16,21,44,9.00
2018,12,16,21,45,9.00
2018,12,16,21,46,9.00
2018,12,16,21,47,9.00
2018,12,16,21,48,9.00
2018,12,16,21,49,9.00
2018,12,16,21,50,9.00
2018,12,16,21,51,9.00
2018,12,16,21,52,9.00
2018,12,16,21,53,9.00
2018,12,16,21,54,9.00
2018,12,16,21,55,9.00
2018,12,16,21,56,9.00
2018,12,16,21,57,8.90
2018,12,16,21,58,8.90
2018,12,16,21,59,8.90
2018,12,16,22,00,8.90
2018,12,16,22,01,8.90
2018,12,16,22,02,8.90
2018,12,16,22,03,8.90
2018,12,16,22,04,8.90
2018,12,16,22,05,8.90
2018,12,16,22,06,8.90
2018,12,16,22,07,8.90
2018,12,16,22,08,8.90
2018,12,16,22,09,8.90
2018,12,16,22,10,8.90
2018,12,16,22,11,8.90
2018,12,16,22,12,8.90
2018,12,16,22,13,8.80
2018,12,16,22,14,8.80
2018,12,16,22,15,8.80
2018,12,16,22,16,8.80
2018,12,16,22,17,8.80
2018,12,16,22,18,8.80
2018,12,16,22,19,8.80
2018,12,16,22,20,8.80
2018,12,16,22,21,8.80
2018,12,16,22,22,8.80
2018,12,16,22,23,8.80
2018,12,16,22,24,8.80
2018,12,16,22,25,8.80
2018,12,16,22,26,8.80
2018,12,16,22,27,8.80
2018,12,16,22,28,8.80
2018,12,16,22,29,8.80
